Location: Azalea Creek
(37.1280°N, 119.2623°W)
Time: 15:12:28
(UTC+00:00)

STARLINK-72 - Pass Details

Date: 17 February 2020
Orbit: 528 x 530 km, 53.0° (Epoch: 28 March)

Event Time Altitude Azimuth Distance (km) Brightness Sun altitude
Rises 02:25:36 0° 206° (SSW) 2,647 7.6 -10.2°
Reaches altitude 10° 02:27:55 10° 198° (SSW) 1,762 6.5 -10.6°
Maximum altitude 02:31:35 36° 131° (SE) 843 4.2 -11.4°
Enters shadow 02:34:07 18° 72° (ENE) 1,360 5.0 -11.9°
